QPF
0.01 0.01 0.00 0.00 0.00 0.01 0.01 0.02 0.03 0.03 0.03 0.03 0.05 0.07 0.09 0.10 0.10 0.10 0.12 0.12 0.09 0.07 0.07 0.05 0.04 0.02 0.02 0.01 0.01 0.01 0.01 0.01 0.01 0.00 0.00 0.00 0.00 0.00 0.00 0.00 0.00 0.00 0.00
0.02 0.01 0.01 0.01 0.01 0.01 0.01 0.01 0.02 0.03 0.02 0.02 0.03 0.05 0.07 0.09 0.10 0.08 0.07 0.10 0.11 0.08 0.06 0.06 0.05 0.03 0.02 0.01 0.01 0.00 0.00 0.00 0.00 0.00 0.00 0.00 0.00 0.00 0.00 0.00 0.00 0.00 0.00
0.02 0.01 0.02 0.02 0.01 0.01 0.01 0.01 0.02 0.02 0.02 0.02 0.03 0.03 0.04 0.06 0.09 0.09 0.05 0.04 0.06 0.07 0.05 0.03 0.03 0.02 0.02 0.01 0.01 0.01 0.00 0.00 0.00 0.00 0.00 0.00 0.00 0.00 0.00 0.00 0.00 0.00 0.00
0.02 0.02 0.02 0.03 0.02 0.02 0.02 0.02 0.02 0.02 0.02 0.02 0.03 0.02 0.03 0.04 0.07 0.10 0.08 0.04 0.03 0.03 0.04 0.03 0.02 0.02 0.01 0.01 0.01 0.00 0.00 0.00 0.00 0.00 0.00 0.00 0.00 0.00 0.00 0.00 0.00 0.00 0.00
0.02 0.02 0.03 0.03 0.03 0.03 0.02 0.02 0.02 0.02 0.02 0.02 0.03 0.03 0.03 0.04 0.05 0.07 0.09 0.06 0.03 0.02 0.03 0.03 0.02 0.02 0.01 0.01 0.01 0.00 0.00 0.00 0.00 0.00 0.00 0.00 0.00 0.00 0.00 0.00 0.00 0.00 0.00
0.01 0.02 0.03 0.03 0.03 0.04 0.04 0.03 0.03 0.02 0.02 0.02 0.03 0.03 0.04 0.04 0.04 0.05 0.07 0.07 0.05 0.03 0.03 0.03 0.03 0.03 0.02 0.01 0.01 0.00 0.00 0.00 0.00 0.00 0.00 0.00 0.00 0.00 0.00 0.00 0.00 0.00 0.00
0.01 0.02 0.02 0.03 0.03 0.04 0.06 0.05 0.03 0.03 0.02 0.02 0.03 0.04 0.04 0.04 0.04 0.04 0.04 0.06 0.06 0.05 0.03 0.02 0.02 0.03 0.03 0.02 0.01 0.01 0.00 0.00 0.01 0.01 0.00 0.00 0.00 0.00 0.00 0.01 0.01 0.01 0.00
0.01 0.01 0.02 0.03 0.03 0.04 0.05 0.06 0.05 0.05 0.05 0.04 0.04 0.04 0.04 0.04 0.04 0.04 0.04 0.04 0.04 0.04 0.04 0.03 0.03 0.02 0.02 0.02 0.02 0.02 0.01 0.00 0.00 0.00 0.00 0.00 0.00 0.00 0.01 0.01 0.01 0.01 0.01
0.01 0.01 0.02 0.03 0.03 0.03 0.04 0.06 0.05 0.05 0.06 0.06 0.05 0.05 0.05 0.05 0.04 0.04 0.04 0.03 0.03 0.03 0.03 0.03 0.04 0.03 0.03 0.03 0.02 0.03 0.02 0.01 0.01 0.01 0.01 0.00 0.00 0.01 0.01 0.01 0.01 0.01 0.01
0.01 0.01 0.02 0.02 0.03 0.03 0.04 0.05 0.05 0.04 0.04 0.05 0.05 0.05 0.05 0.05 0.04 0.04 0.04 0.03 0.02 0.02 0.02 0.02 0.03 0.03 0.03 0.03 0.02 0.02 0.02 0.02 0.01 0.01 0.01 0.01 0.00 0.00 0.01 0.01 0.01 0.02 0.02
0.01 0.01 0.02 0.02 0.02 0.03 0.03 0.04 0.05 0.05 0.04 0.04 0.05 0.05 0.05 0.04 0.04 0.04 0.03 0.02 0.02 0.01 0.01 0.01 0.01 0.01 0.02 0.02 0.02 0.02 0.02 0.02 0.01 0.01 0.01 0.01 0.01 0.00 0.00 0.00 0.01 0.02 0.02
0.02 0.02 0.02 0.02 0.02 0.03 0.03 0.03 0.05 0.05 0.04 0.04 0.04 0.05 0.05 0.05 0.04 0.03 0.03 0.02 0.01 0.01 0.01 0.01 0.01 0.01 0.01 0.01 0.01 0.01 0.01 0.01 0.01 0.01 0.01 0.01 0.00 0.00 0.00 0.00 0.00 0.01 0.01
0.02 0.02 0.01 0.02 0.02 0.03 0.03 0.03 0.04 0.04 0.04 0.03 0.03 0.04 0.04 0.05 0.05 0.03 0.03 0.02 0.01 0.01 0.01 0.01 0.01 0.01 0.01 0.01 0.01 0.01 0.01 0.01 0.01 0.01 0.01 0.00 0.00 0.00 0.00 0.00 0.00 0.01 0.01
0.01 0.01 0.01 0.01 0.01 0.02 0.02 0.02 0.03 0.03 0.03 0.03 0.03 0.03 0.03 0.04 0.04 0.03 0.02 0.02 0.01 0.01 0.00 0.00 0.00 0.00 0.00 0.00 0.00 0.00 0.00 0.01 0.01 0.01 0.01 0.01 0.00 0.00 0.00 0.00 0.01 0.01 0.02
0.01 0.01 0.01 0.00 0.01 0.01 0.01 0.02 0.02 0.03 0.03 0.03 0.03 0.04 0.03 0.03 0.03 0.03 0.02 0.01 0.01 0.01 0.01 0.01 0.00 0.00 0.00 0.00 0.00 0.00 0.00 0.00 0.01 0.01 0.01 0.01 0.01 0.01 0.01 0.01 0.01 0.02 0.02
0.00 0.00 0.00 0.00 0.00 0.00 0.01 0.01 0.01 0.02 0.03 0.03 0.04 0.04 0.03 0.03 0.02 0.02 0.02 0.01 0.01 0.01 0.01 0.01 0.01 0.00 0.00 0.00 0.00 0.00 0.00 0.00 0.01 0.01 0.01 0.02 0.02 0.01 0.01 0.02 0.02 0.03 0.02
0.00 0.00 0.00 0.00 0.00 0.00 0.00 0.01 0.01 0.02 0.02 0.02 0.03 0.04 0.03 0.03 0.02 0.02 0.02 0.02 0.01 0.01 0.01 0.01 0.01 0.00 0.00 0.00 0.00 0.00 0.00 0.00 0.01 0.01 0.02 0.02 0.02 0.02 0.02 0.02 0.02 0.03 0.03
0.00 0.00 0.00 0.00 0.00 0.01 0.01 0.01 0.01 0.01 0.01 0.01 0.02 0.02 0.02 0.02 0.01 0.01 0.02 0.02 0.02 0.01 0.01 0.01 0.00 0.00 0.01 0.01 0.01 0.01 0.01 0.01 0.01 0.01 0.01 0.01 0.02 0.02 0.02 0.02 0.03 0.03 0.03
0.00 0.00 0.00 0.01 0.01 0.01 0.01 0.01 0.01 0.01 0.01 0.01 0.01 0.01 0.01 0.01 0.01 0.01 0.01 0.02 0.01 0.01 0.01 0.01 0.00 0.01 0.01 0.01 0.01 0.01 0.01 0.01 0.01 0.02 0.01 0.01 0.02 0.02 0.02 0.03 0.03 0.04 0.04
0.01 0.01 0.01 0.01 0.01 0.01 0.01 0.01 0.01 0.01 0.01 0.01 0.01 0.01 0.01 0.01 0.01 0.01 0.01 0.01 0.01 0.01 0.01 0.01 0.01 0.01 0.01 0.01 0.01 0.02 0.02 0.02 0.02 0.02 0.02 0.02 0.02 0.02 0.02 0.03 0.04 0.04 0.04
0.01 0.01 0.01 0.01 0.01 0.01 0.01 0.01 0.01 0.01 0.01 0.01 0.01 0.01 0.01 0.01 0.01 0.01 0.01 0.01 0.01 0.02 0.02 0.02 0.02 0.02 0.02 0.02 0.02 0.02 0.02 0.02 0.02 0.02 0.02 0.02 0.02 0.03 0.03 0.03 0.04 0.04 0.04
0.01 0.01 0.01 0.01 0.01 0.01 0.01 0.01 0.01 0.01 0.01 0.01 0.01 0.01 0.02 0.02 0.01 0.01 0.01 0.01 0.01 0.01 0.02 0.03 0.03 0.03 0.02 0.03 0.03 0.03 0.03 0.03 0.03 0.03 0.03 0.03 0.03 0.03 0.03 0.03 0.04 0.04 0.05
0.01 0.01 0.01 0.00 0.01 0.01 0.01 0.01 0.01 0.01 0.01 0.01 0.01 0.01 0.02 0.02 0.02 0.02 0.01 0.01 0.01 0.01 0.02 0.02 0.02 0.02 0.02 0.03 0.03 0.03 0.04 0.03 0.03 0.03 0.03 0.03 0.03 0.03 0.03 0.04 0.04 0.04 0.04
0.01 0.01 0.01 0.01 0.01 0.01 0.01 0.01 0.01 0.01 0.01 0.01 0.01 0.01 0.02 0.02 0.02 0.01 0.01 0.01 0.01 0.01 0.01 0.02 0.02 0.02 0.02 0.02 0.03 0.03 0.03 0.04 0.04 0.04 0.04 0.04 0.03 0.03 0.04 0.04 0.04 0.03 0.03
0.01 0.01 0.01 0.01 0.01 0.01 0.01 0.01 0.01 0.01 0.01 0.01 0.02 0.02 0.02 0.01 0.01 0.01 0.01 0.01 0.01 0.01 0.01 0.01 0.01 0.02 0.01 0.01 0.02 0.02 0.03 0.04 0.04 0.04 0.04 0.04 0.04 0.03 0.03 0.03 0.03 0.03 0.03
0.01 0.01 0.01 0.01 0.01 0.01 0.01 0.01 0.01 0.01 0.01 0.01 0.01 0.01 0.01 0.01 0.01 0.01 0.01 0.01 0.01 0.01 0.01 0.01 0.01 0.01 0.01 0.01 0.01 0.02 0.02 0.03 0.03 0.04 0.04 0.04 0.04 0.04 0.03 0.03 0.03 0.03 0.03
MSLP
1017.51 1017.79 1018.09 1018.39 1018.68 1018.94 1019.17 1019.39 1019.59 1019.78 1019.96 1020.12 1020.27 1020.38 1020.45 1020.48 1020.46 1020.41 1020.34 1020.27 1020.21 1020.17 1020.15 1020.16 1020.17 1020.17 1020.15 1020.07 1019.94 1019.75 1019.51 1019.23 1018.93 1018.62 1018.33 1018.06 1017.82 1017.61 1017.41 1017.24 1017.07 1016.91 1016.76
1017.44 1017.74 1018.04 1018.35 1018.64 1018.90 1019.14 1019.36 1019.57 1019.76 1019.94 1020.10 1020.24 1020.34 1020.39 1020.39 1020.36 1020.28 1020.18 1020.08 1019.98 1019.89 1019.82 1019.77 1019.72 1019.67 1019.61 1019.51 1019.38 1019.22 1019.02 1018.80 1018.57 1018.34 1018.11 1017.89 1017.67 1017.47 1017.26 1017.05 1016.84 1016.63 1016.42
1017.38 1017.69 1018.02 1018.34 1018.64 1018.91 1019.16 1019.38 1019.59 1019.77 1019.94 1020.09 1020.20 1020.28 1020.31 1020.30 1020.24 1020.15 1020.04 1019.91 1019.78 1019.66 1019.55 1019.45 1019.35 1019.25 1019.13 1019.00 1018.85 1018.69 1018.51 1018.33 1018.14 1017.96 1017.78 1017.60 1017.42 1017.23 1017.02 1016.80 1016.57 1016.33 1016.10
1017.34 1017.68 1018.03 1018.36 1018.68 1018.96 1019.22 1019.44 1019.64 1019.81 1019.96 1020.08 1020.17 1020.22 1020.23 1020.19 1020.12 1020.02 1019.89 1019.75 1019.61 1019.47 1019.33 1019.19 1019.05 1018.89 1018.73 1018.55 1018.36 1018.17 1017.98 1017.80 1017.62 1017.46 1017.31 1017.16 1017.00 1016.83 1016.65 1016.44 1016.22 1015.98 1015.75
1017.36 1017.72 1018.08 1018.44 1018.76 1019.06 1019.32 1019.54 1019.73 1019.89 1020.01 1020.10 1020.15 1020.16 1020.13 1020.07 1019.97 1019.85 1019.72 1019.58 1019.44 1019.29 1019.13 1018.97 1018.79 1018.59 1018.38 1018.14 1017.90 1017.66 1017.42 1017.20 1017.00 1016.83 1016.67 1016.53 1016.39 1016.25 1016.09 1015.92 1015.74 1015.54 1015.34
1017.47 1017.83 1018.20 1018.56 1018.89 1019.19 1019.45 1019.67 1019.85 1019.99 1020.08 1020.13 1020.14 1020.10 1020.03 1019.92 1019.79 1019.65 1019.51 1019.36 1019.22 1019.07 1018.91 1018.73 1018.53 1018.30 1018.03 1017.75 1017.44 1017.12 1016.82 1016.54 1016.28 1016.06 1015.88 1015.72 1015.58 1015.46 1015.34 1015.22 1015.10 1014.97 1014.83
1017.66 1018.01 1018.37 1018.72 1019.05 1019.35 1019.61 1019.82 1019.99 1020.10 1020.16 1020.17 1020.12 1020.03 1019.90 1019.74 1019.57 1019.40 1019.23 1019.07 1018.92 1018.77 1018.62 1018.43 1018.22 1017.96 1017.66 1017.31 1016.94 1016.56 1016.18 1015.81 1015.48 1015.19 1014.96 1014.77 1014.62 1014.51 1014.42 1014.35 1014.30 1014.25 1014.20
1017.96 1018.26 1018.59 1018.91 1019.22 1019.50 1019.75 1019.95 1020.10 1020.19 1020.22 1020.18 1020.08 1019.93 1019.73 1019.51 1019.29 1019.07 1018.87 1018.68 1018.52 1018.37 1018.21 1018.03 1017.81 1017.54 1017.21 1016.83 1016.40 1015.95 1015.49 1015.05 1014.64 1014.27 1013.97 1013.73 1013.55 1013.44 1013.37 1013.35 1013.35 1013.38 1013.42
1018.32 1018.56 1018.83 1019.10 1019.37 1019.63 1019.85 1020.03 1020.16 1020.22 1020.22 1020.14 1019.99 1019.77 1019.51 1019.23 1018.94 1018.67 1018.42 1018.20 1018.02 1017.85 1017.69 1017.51 1017.29 1017.01 1016.67 1016.27 1015.81 1015.31 1014.79 1014.28 1013.79 1013.36 1012.99 1012.69 1012.47 1012.33 1012.27 1012.27 1012.32 1012.41 1012.52
1018.72 1018.88 1019.07 1019.28 1019.49 1019.69 1019.88 1020.03 1020.13 1020.17 1020.13 1020.01 1019.82 1019.55 1019.23 1018.89 1018.54 1018.21 1017.91 1017.65 1017.44 1017.25 1017.08 1016.89 1016.67 1016.40 1016.06 1015.65 1015.17 1014.65 1014.09 1013.53 1012.99 1012.49 1012.06 1011.70 1011.44 1011.26 1011.18 1011.17 1011.24 1011.37 1011.54
1019.11 1019.18 1019.29 1019.41 1019.55 1019.69 1019.83 1019.94 1020.00 1020.01 1019.95 1019.79 1019.56 1019.25 1018.89 1018.49 1018.09 1017.71 1017.36 1017.06 1016.81 1016.60 1016.40 1016.21 1015.99 1015.71 1015.38 1014.97 1014.50 1013.96 1013.39 1012.81 1012.23 1011.69 1011.21 1010.81 1010.49 1010.27 1010.14 1010.11 1010.17 1010.30 1010.50
1019.44 1019.43 1019.44 1019.47 1019.53 1019.61 1019.68 1019.75 1019.77 1019.75 1019.65 1019.48 1019.21 1018.87 1018.48 1018.05 1017.61 1017.19 1016.80 1016.46 1016.17 1015.93 1015.71 1015.49 1015.26 1014.99 1014.65 1014.25 1013.78 1013.26 1012.69 1012.10 1011.51 1010.95 1010.43 1009.99 1009.62 1009.35 1009.18 1009.11 1009.14 1009.25 1009.44
1019.67 1019.59 1019.51 1019.47 1019.45 1019.45 1019.46 1019.47 1019.45 1019.39 1019.27 1019.06 1018.78 1018.43 1018.01 1017.57 1017.11 1016.66 1016.25 1015.88 1015.55 1015.28 1015.02 1014.78 1014.52 1014.23 1013.89 1013.48 1013.02 1012.51 1011.95 1011.36 1010.78 1010.21 1009.68 1009.21 1008.81 1008.50 1008.28 1008.17 1008.15 1008.24 1008.42
1019.79 1019.64 1019.50 1019.39 1019.30 1019.23 1019.18 1019.13 1019.07 1018.96 1018.80 1018.58 1018.28 1017.91 1017.49 1017.04 1016.58 1016.13 1015.70 1015.31 1014.96 1014.65 1014.36 1014.07 1013.78 1013.45 1013.08 1012.66 1012.19 1011.68 1011.13 1010.55 1009.98 1009.42 1008.89 1008.41 1007.99 1007.66 1007.41 1007.26 1007.22 1007.27 1007.44
1019.76 1019.58 1019.40 1019.23 1019.09 1018.97 1018.86 1018.75 1018.63 1018.48 1018.28 1018.03 1017.71 1017.34 1016.93 1016.48 1016.03 1015.58 1015.16 1014.76 1014.39 1014.04 1013.71 1013.37 1013.02 1012.65 1012.23 1011.78 1011.29 1010.76 1010.21 1009.64 1009.08 1008.53 1008.02 1007.55 1007.14 1006.80 1006.54 1006.38 1006.33 1006.38 1006.54
1019.58 1019.39 1019.19 1019.00 1018.83 1018.66 1018.51 1018.35 1018.17 1017.97 1017.72 1017.44 1017.10 1016.72 1016.31 1015.88 1015.44 1015.01 1014.59 1014.19 1013.81 1013.43 1013.06 1012.67 1012.26 1011.82 1011.35 1010.84 1010.31 1009.75 1009.19 1008.62 1008.07 1007.55 1007.05 1006.61 1006.23 1005.91 1005.68 1005.54 1005.50 1005.57 1005.76
1019.26 1019.08 1018.90 1018.71 1018.52 1018.33 1018.14 1017.93 1017.70 1017.44 1017.14 1016.81 1016.44 1016.05 1015.63 1015.22 1014.80 1014.39 1013.99 1013.60 1013.21 1012.81 1012.40 1011.97 1011.50 1010.99 1010.45 1009.89 1009.30 1008.71 1008.12 1007.55 1007.01 1006.51 1006.05 1005.65 1005.32 1005.05 1004.87 1004.78 1004.79 1004.90 1005.14
1018.81 1018.66 1018.51 1018.34 1018.16 1017.96 1017.74 1017.49 1017.21 1016.89 1016.54 1016.15 1015.75 1015.33 1014.91 1014.50 1014.10 1013.71 1013.34 1012.96 1012.58 1012.18 1011.74 1011.27 1010.75 1010.19 1009.59 1008.97 1008.34 1007.71 1007.10 1006.53 1006.00 1005.52 1005.11 1004.76 1004.49 1004.29 1004.18 1004.16 1004.24 1004.42 1004.72
1018.24 1018.15 1018.03 1017.90 1017.74 1017.55 1017.31 1017.02 1016.69 1016.31 1015.90 1015.46 1015.02 1014.57 1014.14 1013.73 1013.35 1012.99 1012.65 1012.30 1011.94 1011.54 1011.10 1010.61 1010.06 1009.46 1008.83 1008.16 1007.50 1006.84 1006.23 1005.65 1005.15 1004.71 1004.34 1004.06 1003.85 1003.73 1003.70 1003.77 1003.93 1004.19 1004.56
1017.59 1017.54 1017.48 1017.39 1017.26 1017.07 1016.82 1016.51 1016.13 1015.70 1015.23 1014.74 1014.25 1013.78 1013.34 1012.94 1012.58 1012.25 1011.94 1011.63 1011.30 1010.93 1010.51 1010.03 1009.48 1008.87 1008.22 1007.55 1006.87 1006.21 1005.60 1005.05 1004.57 1004.17 1003.87 1003.65 1003.52 1003.48 1003.53 1003.67 1003.91 1004.24 1004.67
1016.88 1016.88 1016.86 1016.81 1016.70 1016.52 1016.27 1015.93 1015.51 1015.04 1014.52 1013.99 1013.47 1012.97 1012.53 1012.14 1011.81 1011.51 1011.25 1010.99 1010.71 1010.39 1010.01 1009.56 1009.04 1008.46 1007.83 1007.17 1006.51 1005.88 1005.30 1004.78 1004.35 1004.01 1003.76 1003.61 1003.55 1003.58 1003.70 1003.91 1004.20 1004.59 1005.05
1016.13 1016.17 1016.19 1016.17 1016.08 1015.91 1015.64 1015.28 1014.83 1014.32 1013.77 1013.21 1012.67 1012.17 1011.74 1011.37 1011.07 1010.83 1010.63 1010.43 1010.22 1009.96 1009.64 1009.24 1008.78 1008.24 1007.66 1007.05 1006.44 1005.86 1005.33 1004.87 1004.49 1004.21 1004.03 1003.94 1003.94 1004.03 1004.20 1004.45 1004.78 1005.18 1005.65
1015.39 1015.45 1015.49 1015.48 1015.40 1015.22 1014.94 1014.56 1014.09 1013.56 1012.99 1012.42 1011.88 1011.40 1010.99 1010.67 1010.42 1010.24 1010.10 1009.97 1009.83 1009.65 1009.40 1009.08 1008.68 1008.22 1007.70 1007.16 1006.62 1006.11 1005.65 1005.26 1004.95 1004.74 1004.62 1004.59 1004.64 1004.76 1004.96 1005.23 1005.56 1005.94 1006.38
1014.68 1014.74 1014.78 1014.76 1014.67 1014.47 1014.18 1013.78 1013.30 1012.76 1012.20 1011.64 1011.12 1010.68 1010.32 1010.05 1009.87 1009.75 1009.69 1009.64 1009.57 1009.46 1009.29 1009.04 1008.72 1008.33 1007.90 1007.44 1006.98 1006.54 1006.16 1005.85 1005.61 1005.46 1005.40 1005.41 1005.50 1005.65 1005.85 1006.11 1006.41 1006.75 1007.12
1014.00 1014.05 1014.06 1014.03 1013.90 1013.69 1013.37 1012.96 1012.48 1011.95 1011.40 1010.88 1010.41 1010.02 1009.73 1009.53 1009.42 1009.38 1009.39 1009.42 1009.42 1009.38 1009.28 1009.11 1008.85 1008.54 1008.17 1007.79 1007.40 1007.05 1006.74 1006.50 1006.33 1006.23 1006.21 1006.26 1006.37 1006.53 1006.72 1006.95 1007.20 1007.48 1007.78
1013.35 1013.37 1013.35 1013.28 1013.12 1012.88 1012.54 1012.12 1011.65 1011.14 1010.63 1010.16 1009.76 1009.44 1009.23 1009.11 1009.08 1009.12 1009.20 1009.29 1009.36 1009.38 1009.33 1009.21 1009.02 1008.76 1008.45 1008.13 1007.81 1007.51 1007.27 1007.08 1006.96 1006.91 1006.93 1007.00 1007.12 1007.27 1007.44 1007.63 1007.84 1008.04 1008.26
Thickness
5549 5549 5550 5550 5552 5553 5554 5554 5554 5554 5554 5554 5554 5555 5556 5557 5558 5558 5559 5559 5559 5560 5559 5559 5559 5559 5558 5557 5556 5554 5553 5552 5551 5552 5551 5551 5550 5550 5551 5550 5550 5550 5550
5538 5538 5539 5540 5541 5543 5544 5544 5544 5543 5543 5543 5543 5544 5545 5546 5548 5549 5549 5549 5549 5549 5549 5549 5548 5548 5548 5546 5545 5544 5542 5542 5541 5541 5541 5540 5540 5539 5540 5539 5539 5540 5540
5527 5527 5527 5528 5530 5532 5532 5532 5532 5533 5533 5533 5532 5532 5534 5535 5536 5538 5539 5539 5539 5539 5538 5538 5538 5537 5536 5536 5534 5533 5532 5531 5530 5530 5530 5529 5528 5528 5527 5528 5528 5528 5529
5517 5516 5516 5517 5518 5519 5520 5521 5520 5521 5521 5521 5521 5521 5522 5523 5525 5527 5527 5527 5528 5527 5528 5528 5527 5526 5526 5525 5524 5522 5520 5519 5518 5517 5517 5517 5515 5515 5515 5514 5515 5516 5517
5505 5505 5505 5506 5506 5507 5507 5508 5508 5508 5508 5508 5509 5510 5510 5512 5514 5515 5516 5516 5516 5515 5516 5516 5516 5515 5515 5514 5514 5511 5509 5507 5505 5505 5504 5504 5503 5502 5502 5501 5501 5503 5504
5493 5493 5493 5493 5494 5494 5494 5495 5495 5495 5496 5496 5497 5497 5498 5500 5502 5504 5504 5503 5504 5504 5504 5504 5503 5503 5503 5503 5502 5501 5499 5497 5495 5493 5493 5492 5492 5490 5489 5488 5487 5488 5490
5480 5481 5481 5481 5481 5480 5481 5482 5482 5483 5483 5484 5484 5485 5485 5487 5489 5491 5492 5491 5491 5491 5491 5490 5490 5490 5490 5489 5488 5488 5487 5486 5486 5484 5482 5482 5481 5480 5477 5476 5475 5475 5477
5466 5466 5467 5467 5468 5468 5467 5468 5469 5469 5470 5471 5472 5472 5473 5475 5476 5477 5477 5477 5477 5477 5477 5477 5476 5476 5476 5475 5474 5473 5472 5472 5472 5472 5472 5472 5470 5468 5467 5466 5465 5464 5465
5453 5453 5453 5453 5454 5454 5454 5455 5455 5456 5457 5458 5459 5460 5461 5462 5463 5463 5463 5462 5463 5463 5463 5463 5463 5463 5463 5462 5460 5459 5458 5458 5459 5459 5459 5458 5457 5456 5454 5452 5450 5450 5452
5441 5441 5441 5441 5441 5441 5441 5442 5442 5443 5444 5445 5446 5446 5447 5448 5450 5450 5450 5449 5449 5449 5449 5449 5449 5450 5450 5449 5447 5446 5445 5446 5445 5445 5444 5443 5442 5442 5441 5439 5438 5436 5437
5428 5428 5428 5428 5428 5428 5428 5429 5429 5429 5430 5431 5433 5434 5434 5435 5436 5436 5436 5434 5434 5435 5435 5435 5436 5436 5436 5436 5435 5433 5433 5433 5431 5430 5429 5429 5428 5427 5426 5426 5425 5424 5424
5414 5414 5415 5415 5415 5416 5415 5415 5415 5415 5416 5417 5418 5419 5420 5420 5421 5422 5422 5421 5421 5420 5422 5422 5422 5422 5422 5422 5421 5420 5420 5419 5417 5416 5415 5415 5414 5414 5413 5413 5412 5413 5413
5400 5400 5400 5401 5401 5402 5401 5401 5401 5401 5401 5402 5403 5405 5406 5407 5407 5408 5408 5408 5407 5407 5408 5409 5409 5408 5408 5407 5407 5406 5405 5403 5403 5402 5403 5403 5402 5402 5400 5400 5400 5400 5400
5386 5386 5387 5387 5388 5388 5388 5388 5388 5388 5388 5388 5389 5390 5391 5393 5393 5393 5392 5392 5393 5393 5394 5395 5395 5395 5393 5393 5393 5392 5391 5390 5390 5390 5391 5391 5389 5388 5387 5387 5387 5387 5387
5373 5373 5373 5374 5374 5375 5375 5375 5376 5377 5376 5377 5377 5377 5377 5379 5381 5380 5380 5379 5379 5379 5379 5379 5379 5379 5378 5378 5378 5378 5378 5377 5377 5378 5378 5378 5377 5377 5376 5375 5375 5375 5376
5359 5360 5360 5361 5361 5361 5362 5363 5365 5365 5366 5366 5366 5366 5366 5368 5368 5368 5368 5369 5369 5368 5367 5367 5367 5367 5367 5367 5366 5366 5366 5365 5365 5365 5366 5366 5366 5366 5365 5365 5364 5365 5367
5347 5348 5348 5348 5349 5349 5349 5349 5351 5353 5354 5354 5354 5354 5354 5355 5355 5356 5356 5357 5357 5357 5356 5356 5356 5356 5356 5356 5355 5355 5356 5356 5355 5355 5355 5355 5355 5355 5355 5355 5355 5356 5358
5336 5337 5337 5337 5337 5337 5337 5337 5337 5338 5340 5342 5342 5341 5342 5342 5343 5344 5344 5344 5345 5345 5344 5345 5345 5345 5346 5346 5346 5346 5346 5346 5345 5345 5346 5346 5345 5346 5346 5347 5348 5348 5349
5326 5326 5326 5326 5326 5326 5326 5326 5325 5326 5327 5328 5329 5329 5330 5330 5332 5333 5333 5332 5333 5334 5334 5335 5335 5336 5336 5337 5337 5337 5337 5338 5337 5337 5338 5338 5338 5338 5339 5340 5340 5341 5341
5317 5318 5317 5316 5316 5316 5315 5315 5315 5315 5315 5316 5317 5318 5318 5318 5319 5321 5321 5321 5322 5324 5325 5326 5327 5328 5328 5329 5329 5329 5330 5330 5330 5330 5331 5331 5331 5332 5332 5333 5334 5334 5335
5308 5308 5309 5307 5307 5307 5306 5306 5305 5305 5306 5307 5308 5309 5309 5309 5310 5312 5312 5313 5314 5315 5317 5318 5320 5321 5321 5322 5322 5323 5323 5324 5325 5325 5326 5326 5326 5326 5327 5327 5327 5328 5328
5298 5298 5298 5298 5298 5298 5298 5298 5297 5297 5298 5298 5300 5301 5301 5301 5303 5304 5305 5307 5307 5308 5310 5311 5313 5315 5315 5316 5316 5317 5318 5319 5320 5320 5320 5321 5321 5321 5321 5322 5322 5322 5322
5289 5289 5290 5290 5290 5291 5291 5290 5290 5290 5290 5291 5292 5293 5294 5294 5296 5297 5299 5300 5301 5302 5304 5305 5307 5309 5310 5311 5312 5313 5314 5316 5316 5316 5317 5317 5317 5317 5317 5317 5318 5318 5318
5281 5281 5281 5281 5282 5282 5282 5283 5283 5283 5284 5285 5285 5286 5287 5288 5289 5291 5292 5293 5295 5297 5298 5299 5301 5303 5305 5307 5308 5309 5311 5312 5312 5313 5313 5314 5314 5314 5313 5313 5314 5314 5314
5273 5273 5273 5274 5274 5275 5276 5276 5277 5277 5278 5279 5280 5281 5281 5282 5283 5284 5286 5287 5289 5290 5292 5294 5296 5298 5301 5302 5304 5305 5307 5308 5309 5309 5309 5310 5310 5310 5310 5310 5310 5309 5309
5266 5266 5266 5267 5267 5268 5269 5270 5271 5271 5272 5273 5274 5275 5275 5276 5278 5279 5280 5281 5283 5285 5287 5289 5292 5294 5296 5298 5300 5301 5303 5304 5305 5305 5305 5305 5306 5306 5306 5306 5305 5305 5305